Time,TemperatureF,DewpointF,PressureIn,WindDirection,WindDirectionDegrees,WindSpeedMPH,WindSpeedGustMPH,Humidity,HourlyPrecipIn,Conditions,Clouds,dailyrainin,SoftwareType,DateUTC
2013-01-24 00:00:00,18.1,12.0,30.25,NNW,338,14.3,17.6,77,0.00,,,0.10,WUHU216HW,2013-01-24 05:00:00,
2013-01-24 00:02:00,18.1,12.0,30.25,NNW,338,10.0,17.6,77,0.00,,,0.00,WUHU216HW,2013-01-24 05:02:00,
2013-01-24 00:03:00,18.1,11.7,30.24,NNW,338,18.3,18.3,76,0.00,,,0.00,WUHU216HW,2013-01-24 05:03:00,
2013-01-24 00:08:00,17.9,11.2,30.25,NE,45,6.4,18.3,75,0.00,,,0.00,WUHU216HW,2013-01-24 05:08:00,
2013-01-24 00:13:00,17.9,10.6,30.25,NNW,338,13.8,15.2,73,0.00,,,0.00,WUHU216HW,2013-01-24 05:13:00,
2013-01-24 00:18:00,17.9,10.4,30.26,NNW,338,7.6,14.7,72,0.00,,,0.00,WUHU216HW,2013-01-24 05:18:00,
2013-01-24 00:23:00,18.1,10.1,30.26,North,0,7.8,15.4,71,0.00,,,0.00,WUHU216HW,2013-01-24 05:23:00,
2013-01-24 00:28:00,18.1,9.9,30.26,North,0,11.4,15.4,70,0.00,,,0.00,WUHU216HW,2013-01-24 05:28:00,
2013-01-24 00:33:00,18.1,9.9,30.25,NNW,338,19.9,19.9,70,0.00,,,0.00,WUHU216HW,2013-01-24 05:33:00,
2013-01-24 00:38:00,18.1,9.9,30.26,NNW,338,14.3,19.9,70,0.00,,,0.00,WUHU216HW,2013-01-24 05:38:00,
2013-01-24 00:43:00,18.1,9.9,30.26,North,0,9.1,14.3,70,0.00,,,0.00,WUHU216HW,2013-01-24 05:43:00,
2013-01-24 00:48:00,17.9,10.1,30.26,NNE,23,2.2,14.3,71,0.00,,,0.00,WUHU216HW,2013-01-24 05:48:00,
2013-01-24 00:53:00,17.7,9.9,30.27,NNW,338,15.8,15.8,71,0.00,,,0.00,WUHU216HW,2013-01-24 05:53:00,
2013-01-24 00:58:00,17.7,10.2,30.27,NNW,338,11.8,15.8,72,0.00,,,0.00,WUHU216HW,2013-01-24 05:58:00,
2013-01-24 01:03:00,17.4,9.8,30.27,NNW,338,14.5,15.8,72,0.00,,,0.00,WUHU216HW,2013-01-24 06:03:00,
2013-01-24 01:08:00,17.4,9.8,30.27,North,0,14.9,14.9,72,0.00,,,0.00,WUHU216HW,2013-01-24 06:08:00,
2013-01-24 01:13:00,17.4,9.8,30.27,North,0,4.0,19.0,72,0.00,,,0.00,WUHU216HW,2013-01-24 06:13:00,
2013-01-24 01:18:00,17.6,10.0,30.29,North,0,2.2,19.0,72,0.00,,,0.00,WUHU216HW,2013-01-24 06:18:00,
2013-01-24 01:23:00,17.2,10.0,30.29,ENE,68,7.8,7.8,73,0.00,,,0.00,WUHU216HW,2013-01-24 06:23:00,
2013-01-24 01:28:00,16.8,9.9,30.30,NE,45,0.0,8.7,74,0.00,,,0.00,WUHU216HW,2013-01-24 06:28:00,
2013-01-24 01:33:00,16.5,9.6,30.31,NE,45,0.0,8.7,74,0.00,,,0.00,WUHU216HW,2013-01-24 06:33:00,
2013-01-24 01:38:00,16.1,9.5,30.31,ENE,68,0.0,1.3,75,0.00,,,0.00,WUHU216HW,2013-01-24 06:38:00,
2013-01-24 01:43:00,15.9,9.3,30.31,NNE,23,0.0,0.0,75,0.00,,,0.00,WUHU216HW,2013-01-24 06:43:00,
2013-01-24 01:48:00,15.9,9.6,30.31,NE,45,0.0,0.0,76,0.00,,,0.00,WUHU216HW,2013-01-24 06:48:00,
2013-01-24 01:53:00,15.6,9.6,30.31,NE,45,0.0,0.8,77,0.00,,,0.00,WUHU216HW,2013-01-24 06:53:00,
2013-01-24 01:58:00,15.6,9.6,30.32,NE,45,1.7,1.7,77,0.00,,,0.00,WUHU216HW,2013-01-24 06:58:00,
2013-01-24 02:03:00,15.4,9.4,30.31,ENE,68,0.0,1.7,77,0.00,,,0.00,WUHU216HW,2013-01-24 07:03:00,
2013-01-24 02:08:00,15.0,9.1,30.32,NE,45,0.0,3.8,77,0.00,,,0.00,WUHU216HW,2013-01-24 07:08:00,
2013-01-24 02:13:00,15.0,9.4,30.32,NE,45,0.0,3.8,78,0.00,,,0.00,WUHU216HW,2013-01-24 07:13:00,
2013-01-24 02:18:00,15.0,9.4,30.32,NE,45,1.5,4.2,78,0.00,,,0.00,WUHU216HW,2013-01-24 07:18:00,
2013-01-24 02:23:00,14.9,9.2,30.32,NE,45,0.0,7.6,78,0.00,,,0.00,WUHU216HW,2013-01-24 07:23:00,
2013-01-24 02:28:00,14.7,9.0,30.33,ENE,68,0.0,7.6,78,0.00,,,0.00,WUHU216HW,2013-01-24 07:28:00,
2013-01-24 02:33:00,14.9,9.2,30.33,NE,45,0.8,0.8,78,0.00,,,0.00,WUHU216HW,2013-01-24 07:33:00,
2013-01-24 02:38:00,14.7,9.3,30.34,NE,45,0.0,0.8,79,0.00,,,0.00,WUHU216HW,2013-01-24 07:38:00,
2013-01-24 02:43:00,14.7,9.3,30.34,NNW,338,1.3,1.3,79,0.00,,,0.00,WUHU216HW,2013-01-24 07:43:00,
2013-01-24 02:48:00,14.7,9.3,30.34,NE,45,1.1,1.3,79,0.00,,,0.00,WUHU216HW,2013-01-24 07:48:00,
2013-01-24 02:53:00,14.7,9.3,30.35,NE,45,2.9,2.9,79,0.00,,,0.00,WUHU216HW,2013-01-24 07:53:00,
2013-01-24 02:58:00,14.7,9.3,30.35,NE,45,0.0,2.9,79,0.00,,,0.00,WUHU216HW,2013-01-24 07:58:00,
2013-01-24 03:03:00,14.7,9.3,30.36,NE,45,0.0,2.9,79,0.00,,,0.00,WUHU216HW,2013-01-24 08:03:00,
2013-01-24 03:08:00,14.7,9.6,30.35,NE,45,0.0,5.1,80,0.00,,,0.00,WUHU216HW,2013-01-24 08:08:00,
2013-01-24 03:13:00,14.7,9.6,30.36,NE,45,1.3,5.1,80,0.00,,,0.00,WUHU216HW,2013-01-24 08:13:00,
2013-01-24 03:18:00,14.7,9.6,30.36,ENE,68,2.6,2.6,80,0.00,,,0.00,WUHU216HW,2013-01-24 08:18:00,
2013-01-24 03:23:00,14.7,9.6,30.36,NE,45,0.0,2.6,80,0.00,,,0.00,WUHU216HW,2013-01-24 08:23:00,
2013-01-24 03:28:00,14.7,9.6,30.37,ENE,68,0.8,0.8,80,0.00,,,0.00,WUHU216HW,2013-01-24 08:28:00,
2013-01-24 03:33:00,14.9,9.8,30.37,ENE,68,0.0,0.8,80,0.00,,,0.00,WUHU216HW,2013-01-24 08:33:00,
2013-01-24 03:38:00,14.9,9.8,30.36,NE,45,0.0,0.8,80,0.00,,,0.00,WUHU216HW,2013-01-24 08:38:00,
2013-01-24 03:43:00,14.9,9.8,30.36,ENE,68,0.0,0.0,80,0.00,,,0.00,WUHU216HW,2013-01-24 08:43:00,
2013-01-24 03:48:00,14.9,9.8,30.36,NE,45,0.0,0.0,80,0.00,,,0.00,WUHU216HW,2013-01-24 08:48:00,
2013-01-24 03:53:00,15.0,10.2,30.37,ENE,68,0.0,0.0,81,0.00,,,0.00,WUHU216HW,2013-01-24 08:53:00,
2013-01-24 03:58:00,15.0,10.2,30.38,ENE,68,0.0,0.0,81,0.00,,,0.00,WUHU216HW,2013-01-24 08:58:00,
2013-01-24 04:03:00,15.0,10.2,30.37,ENE,68,0.0,0.0,81,0.00,,,0.00,WUHU216HW,2013-01-24 09:03:00,
2013-01-24 04:08:00,15.0,10.2,30.37,ENE,68,0.0,0.0,81,0.00,,,0.00,WUHU216HW,2013-01-24 09:08:00,
2013-01-24 04:13:00,15.0,10.2,30.37,East,90,0.0,0.0,81,0.00,,,0.00,WUHU216HW,2013-01-24 09:13:00,
2013-01-24 04:18:00,14.7,9.9,30.37,East,90,0.8,0.8,81,0.00,,,0.00,WUHU216HW,2013-01-24 09:18:00,
2013-01-24 04:23:00,14.7,9.9,30.38,NE,45,0.0,0.8,81,0.00,,,0.00,WUHU216HW,2013-01-24 09:23:00,
2013-01-24 04:28:00,14.7,9.9,30.39,NE,45,0.0,0.0,81,0.00,,,0.00,WUHU216HW,2013-01-24 09:28:00,
2013-01-24 04:33:00,14.7,9.9,30.39,ENE,68,0.0,0.0,81,0.00,,,0.00,WUHU216HW,2013-01-24 09:33:00,
2013-01-24 04:38:00,14.9,10.1,30.39,East,90,0.0,0.0,81,0.00,,,0.00,WUHU216HW,2013-01-24 09:38:00,
2013-01-24 04:43:00,14.7,9.9,30.38,ESE,113,0.0,0.0,81,0.00,,,0.00,WUHU216HW,2013-01-24 09:43:00,
2013-01-24 04:48:00,14.7,9.9,30.39,ESE,113,0.0,0.0,81,0.00,,,0.00,WUHU216HW,2013-01-24 09:48:00,
2013-01-24 04:53:00,14.7,9.9,30.39,ESE,113,0.0,1.3,81,0.00,,,0.00,WUHU216HW,2013-01-24 09:53:00,
2013-01-24 04:58:00,14.7,9.9,30.38,SE,135,2.2,2.2,81,0.00,,,0.00,WUHU216HW,2013-01-24 09:58:00,
2013-01-24 05:03:00,14.5,9.7,30.39,ESE,113,1.5,2.2,81,0.00,,,0.00,WUHU216HW,2013-01-24 10:03:00,
2013-01-24 05:08:00,14.5,10.0,30.40,ENE,68,0.0,2.2,82,0.00,,,0.00,WUHU216HW,2013-01-24 10:08:00,
2013-01-24 05:13:00,14.7,10.2,30.39,ESE,113,2.0,2.0,82,0.00,,,0.00,WUHU216HW,2013-01-24 10:13:00,
2013-01-24 05:18:00,14.7,10.2,30.41,ESE,113,0.0,2.0,82,0.00,,,0.00,WUHU216HW,2013-01-24 10:18:00,
2013-01-24 05:23:00,14.9,10.3,30.40,NE,45,0.0,1.3,82,0.00,,,0.00,WUHU216HW,2013-01-24 10:23:00,
2013-01-24 05:28:00,14.9,10.3,30.41,NE,45,0.0,1.3,82,0.00,,,0.00,WUHU216HW,2013-01-24 10:28:00,
2013-01-24 05:33:00,15.0,10.5,30.41,ENE,68,0.0,0.0,82,0.00,,,0.00,WUHU216HW,2013-01-24 10:33:00,
2013-01-24 05:38:00,15.0,10.5,30.41,NE,45,2.4,2.4,82,0.00,,,0.00,WUHU216HW,2013-01-24 10:38:00,
2013-01-24 05:43:00,15.0,10.5,30.42,NE,45,0.0,2.4,82,0.00,,,0.00,WUHU216HW,2013-01-24 10:43:00,
2013-01-24 05:48:00,15.0,10.5,30.42,ENE,68,0.0,2.4,82,0.00,,,0.00,WUHU216HW,2013-01-24 10:48:00,
2013-01-24 05:53:00,15.0,10.5,30.43,ENE,68,2.4,2.4,82,0.00,,,0.00,WUHU216HW,2013-01-24 10:53:00,
2013-01-24 05:58:00,15.2,10.7,30.44,NE,45,0.8,2.4,82,0.00,,,0.00,WUHU216HW,2013-01-24 10:58:00,
2013-01-24 06:03:00,15.0,10.5,30.43,NE,45,0.0,2.4,82,0.00,,,0.00,WUHU216HW,2013-01-24 11:03:00,
2013-01-24 06:08:00,15.0,10.2,30.44,ENE,68,0.0,0.0,81,0.00,,,0.00,WUHU216HW,2013-01-24 11:08:00,
2013-01-24 06:13:00,14.7,9.9,30.44,ENE,68,1.3,1.3,81,0.00,,,0.00,WUHU216HW,2013-01-24 11:13:00,
2013-01-24 06:18:00,14.5,9.7,30.45,NE,45,1.3,3.1,81,0.00,,,0.00,WUHU216HW,2013-01-24 11:18:00,
2013-01-24 06:23:00,14.1,9.3,30.45,NE,45,0.0,3.1,81,0.00,,,0.00,WUHU216HW,2013-01-24 11:23:00,
2013-01-24 06:28:00,14.0,9.2,30.45,NE,45,1.3,1.3,81,0.00,,,0.00,WUHU216HW,2013-01-24 11:28:00,
2013-01-24 06:33:00,13.8,9.0,30.46,NE,45,0.0,1.3,81,0.00,,,0.00,WUHU216HW,2013-01-24 11:33:00,
2013-01-24 06:38:00,13.6,8.6,30.46,NE,45,0.6,1.5,80,0.00,,,0.00,WUHU216HW,2013-01-24 11:38:00,
2013-01-24 06:43:00,13.2,8.2,30.47,NE,45,2.4,2.4,80,0.00,,,0.00,WUHU216HW,2013-01-24 11:43:00,
2013-01-24 06:48:00,13.1,8.0,30.47,NE,45,0.0,2.4,80,0.00,,,0.00,WUHU216HW,2013-01-24 11:48:00,
2013-01-24 06:53:00,12.7,7.7,30.47,NE,45,0.0,2.4,80,0.00,,,0.00,WUHU216HW,2013-01-24 11:53:00,
2013-01-24 06:58:00,12.7,7.7,30.48,ENE,68,0.0,2.0,80,0.00,,,0.00,WUHU216HW,2013-01-24 11:58:00,
2013-01-24 07:03:00,12.5,7.5,30.48,NE,45,1.1,2.0,80,0.00,,,0.00,WUHU216HW,2013-01-24 12:03:00,
2013-01-24 07:08:00,12.2,7.1,30.49,NE,45,0.0,1.1,80,0.00,,,0.00,WUHU216HW,2013-01-24 12:08:00,
2013-01-24 07:13:00,12.0,6.9,30.49,NE,45,0.0,0.0,80,0.00,,,0.00,WUHU216HW,2013-01-24 12:13:00,
2013-01-24 07:18:00,12.0,6.9,30.50,ENE,68,0.8,0.8,80,0.00,,,0.00,WUHU216HW,2013-01-24 12:18:00,
2013-01-24 07:23:00,11.6,6.6,30.51,NE,45,0.0,0.8,80,0.00,,,0.00,WUHU216HW,2013-01-24 12:23:00,
2013-01-24 07:28:00,11.4,6.4,30.51,NE,45,2.2,2.2,80,0.00,,,0.00,WUHU216HW,2013-01-24 12:28:00,
2013-01-24 07:33:00,11.3,6.2,30.52,NE,45,0.0,2.2,80,0.00,,,0.00,WUHU216HW,2013-01-24 12:33:00,
2013-01-24 07:38:00,11.1,5.7,30.52,NE,45,1.1,3.3,79,0.00,,,0.00,WUHU216HW,2013-01-24 12:38:00,
2013-01-24 07:43:00,11.1,5.7,30.52,NE,45,2.2,3.3,79,0.00,,,0.00,WUHU216HW,2013-01-24 12:43:00,
2013-01-24 07:48:00,10.9,5.6,30.52,NE,45,0.8,2.2,79,0.00,,,0.00,WUHU216HW,2013-01-24 12:48:00,
2013-01-24 07:53:00,10.5,5.2,30.53,NE,45,0.6,0.8,79,0.00,,,0.00,WUHU216HW,2013-01-24 12:53:00,
2013-01-24 07:58:00,10.5,5.2,30.54,ENE,68,0.0,0.6,79,0.00,,,0.00,WUHU216HW,2013-01-24 12:58:00,
2013-01-24 08:03:00,10.5,5.2,30.54,NE,45,0.6,4.2,79,0.00,,,0.00,WUHU216HW,2013-01-24 13:03:00,
2013-01-24 08:08:00,10.5,5.2,30.54,ENE,68,0.8,4.4,79,0.00,,,0.00,WUHU216HW,2013-01-24 13:08:00,
2013-01-24 08:13:00,10.2,4.9,30.55,ENE,68,2.4,4.4,79,0.00,,,0.00,WUHU216HW,2013-01-24 13:13:00,
2013-01-24 08:18:00,10.4,5.0,30.55,NE,45,0.0,2.4,79,0.00,,,0.00,WUHU216HW,2013-01-24 13:18:00,
2013-01-24 08:23:00,10.2,4.9,30.55,NE,45,0.8,2.2,79,0.00,,,0.00,WUHU216HW,2013-01-24 13:23:00,
2013-01-24 08:28:00,10.5,5.2,30.56,NE,45,0.0,0.8,79,0.00,,,0.00,WUHU216HW,2013-01-24 13:28:00,
2013-01-24 08:33:00,10.5,5.2,30.56,NE,45,0.0,1.1,79,0.00,,,0.00,WUHU216HW,2013-01-24 13:33:00,
2013-01-24 08:38:00,10.5,5.2,30.57,NE,45,0.0,1.1,79,0.00,,,0.00,WUHU216HW,2013-01-24 13:38:00,
2013-01-24 08:43:00,10.7,5.4,30.58,ENE,68,0.0,0.0,79,0.00,,,0.00,WUHU216HW,2013-01-24 13:43:00,
2013-01-24 08:48:00,10.9,5.6,30.58,NE,45,0.8,1.1,79,0.00,,,0.00,WUHU216HW,2013-01-24 13:48:00,
2013-01-24 08:53:00,10.9,5.6,30.58,ENE,68,1.5,1.5,79,0.00,,,0.00,WUHU216HW,2013-01-24 13:53:00,
2013-01-24 08:58:00,11.1,5.5,30.59,ENE,68,1.5,1.5,78,0.00,,,0.00,WUHU216HW,2013-01-24 13:58:00,
2013-01-24 09:03:00,11.3,5.6,30.59,NE,45,0.0,1.5,78,0.00,,,0.00,WUHU216HW,2013-01-24 14:03:00,
2013-01-24 09:08:00,11.4,5.8,30.59,NE,45,1.3,1.5,78,0.00,,,0.00,WUHU216HW,2013-01-24 14:08:00,
2013-01-24 09:13:00,12.0,6.4,30.60,NE,45,0.0,1.3,78,0.00,,,0.00,WUHU216HW,2013-01-24 14:13:00,
2013-01-24 09:18:00,12.2,6.5,30.60,NE,45,0.0,1.3,78,0.00,,,0.00,WUHU216HW,2013-01-24 14:18:00,
2013-01-24 09:23:00,12.5,6.9,30.61,ENE,68,0.0,2.2,78,0.00,,,0.00,WUHU216HW,2013-01-24 14:23:00,
2013-01-24 09:28:00,12.5,6.6,30.62,ENE,68,0.0,2.2,77,0.00,,,0.00,WUHU216HW,2013-01-24 14:28:00,
2013-01-24 09:33:00,12.5,6.6,30.62,ENE,68,0.0,0.0,77,0.00,,,0.00,WUHU216HW,2013-01-24 14:33:00,
2013-01-24 09:38:00,14.1,8.2,30.63,ENE,68,1.5,1.5,77,0.00,,,0.00,WUHU216HW,2013-01-24 14:38:00,
2013-01-24 09:43:00,14.5,8.6,30.63,ENE,68,0.0,1.5,77,0.00,,,0.00,WUHU216HW,2013-01-24 14:43:00,
2013-01-24 09:48:00,15.2,9.0,30.64,ENE,68,0.0,1.5,76,0.00,,,0.00,WUHU216HW,2013-01-24 14:48:00,
2013-01-24 09:53:00,16.8,10.2,30.65,ENE,68,0.8,0.8,75,0.00,,,0.00,WUHU216HW,2013-01-24 14:53:00,
2013-01-24 09:58:00,17.9,10.9,30.65,ENE,68,0.0,0.8,74,0.00,,,0.00,WUHU216HW,2013-01-24 14:58:00,
2013-01-24 10:03:00,18.8,11.5,30.66,East,90,1.3,1.3,73,0.00,,,0.00,WUHU216HW,2013-01-24 15:03:00,
2013-01-24 10:08:00,19.7,11.7,30.66,ENE,68,0.8,1.3,71,0.00,,,0.00,WUHU216HW,2013-01-24 15:08:00,
2013-01-24 10:13:00,20.3,12.0,30.67,ENE,68,0.0,1.3,70,0.00,,,0.00,WUHU216HW,2013-01-24 15:13:00,
2013-01-24 10:18:00,20.8,12.2,30.67,ESE,113,0.0,1.5,69,0.00,,,0.00,WUHU216HW,2013-01-24 15:18:00,
2013-01-24 10:23:00,20.8,11.8,30.67,East,90,0.8,1.5,68,0.00,,,0.00,WUHU216HW,2013-01-24 15:23:00,
2013-01-24 10:28:00,20.8,11.5,30.68,ENE,68,2.2,2.2,67,0.00,,,0.00,WUHU216HW,2013-01-24 15:28:00,
2013-01-24 10:33:00,20.8,11.5,30.68,East,90,1.1,2.2,67,0.00,,,0.00,WUHU216HW,2013-01-24 15:33:00,
2013-01-24 10:38:00,21.3,12.0,30.68,ENE,68,0.0,2.4,67,0.00,,,0.00,WUHU216HW,2013-01-24 15:38:00,
2013-01-24 10:43:00,21.7,12.0,30.68,SE,135,1.3,2.4,66,0.00,,,0.00,WUHU216HW,2013-01-24 15:43:00,
2013-01-24 10:48:00,21.3,11.3,30.68,East,90,1.5,1.7,65,0.00,,,0.00,WUHU216HW,2013-01-24 15:48:00,
2013-01-24 11:09:00,21.0,10.3,30.69,East,90,1.1,1.1,63,0.00,,,0.00,WUHU216HW,2013-01-24 16:09:00,
2013-01-24 11:14:00,21.7,11.0,30.69,NE,45,0.0,1.1,63,0.00,,,0.00,WUHU216HW,2013-01-24 16:14:00,
2013-01-24 11:19:00,21.3,9.6,30.69,NNE,23,4.2,4.2,60,0.00,,,0.00,WUHU216HW,2013-01-24 16:19:00,
2013-01-24 11:24:00,20.3,8.6,30.69,East,90,0.0,4.2,60,0.00,,,0.00,WUHU216HW,2013-01-24 16:24:00,
2013-01-24 11:29:00,20.1,8.4,30.70,ENE,68,2.2,6.0,60,0.00,,,0.00,WUHU216HW,2013-01-24 16:29:00,
2013-01-24 11:34:00,20.1,9.1,30.70,ESE,113,0.0,6.0,60,0.00,,,0.00,WUHU216HW,2013-01-24 16:34:00,
2013-01-24 12:15:00,19.7,6.0,30.69,SE,135,8.0,8.0,55,0.00,,,0.00,WUHU216HW,2013-01-24 17:15:00,
2013-01-24 12:20:00,19.0,5.0,30.69,SE,135,3.3,8.0,54,0.00,,,0.00,WUHU216HW,2013-01-24 17:20:00,
2013-01-24 12:25:00,19.0,5.3,30.69,NE,45,1.7,8.0,55,0.00,,,0.00,WUHU216HW,2013-01-24 17:25:00,
2013-01-24 12:30:00,19.7,6.0,30.70,ENE,68,2.2,3.3,55,0.00,,,0.00,WUHU216HW,2013-01-24 17:30:00,
2013-01-24 12:35:00,20.4,7.1,30.69,ESE,113,3.5,3.5,55,0.00,,,0.00,WUHU216HW,2013-01-24 17:35:00,
2013-01-24 12:40:00,19.9,5.8,30.68,ENE,68,2.2,4.2,54,0.00,,,0.00,WUHU216HW,2013-01-24 17:40:00,
2013-01-24 12:45:00,20.1,6.4,30.68,East,90,0.0,4.2,55,0.00,,,0.00,WUHU216HW,2013-01-24 17:45:00,
2013-01-24 12:50:00,20.4,6.7,30.68,SE,135,4.2,4.2,55,0.00,,,0.00,WUHU216HW,2013-01-24 17:50:00,
2013-01-24 12:55:00,20.4,6.3,30.68,SE,135,3.3,4.2,54,0.00,,,0.00,WUHU216HW,2013-01-24 17:55:00,
2013-01-24 13:00:00,20.1,5.5,30.68,SE,135,2.9,3.3,53,0.00,,,0.00,WUHU216HW,2013-01-24 18:00:00,
2013-01-24 13:05:00,20.4,6.3,30.67,ESE,113,4.0,4.0,54,0.00,,,0.00,WUHU216HW,2013-01-24 18:05:00,
2013-01-24 13:10:00,21.3,7.1,30.67,ESE,113,4.0,4.0,54,0.00,,,0.00,WUHU216HW,2013-01-24 18:10:00,
2013-01-24 13:15:00,22.4,8.2,30.67,NE,45,0.0,4.0,54,0.00,,,0.00,WUHU216HW,2013-01-24 18:15:00,
2013-01-24 13:20:00,23.3,9.4,30.67,ENE,68,1.5,4.0,55,0.00,,,0.00,WUHU216HW,2013-01-24 18:20:00,
2013-01-24 13:25:00,23.3,8.2,30.67,East,90,2.2,4.2,52,0.00,,,0.00,WUHU216HW,2013-01-24 18:25:00,
2013-01-24 13:30:00,22.2,6.4,30.67,SE,135,6.0,9.6,50,0.00,,,0.00,WUHU216HW,2013-01-24 18:30:00,
2013-01-24 13:35:00,21.3,6.4,30.67,SE,135,2.4,9.6,51,0.00,,,0.00,WUHU216HW,2013-01-24 18:35:00,
2013-01-24 13:40:00,21.7,6.3,30.67,ESE,113,0.0,6.0,53,0.00,,,0.00,WUHU216HW,2013-01-24 18:40:00,
2013-01-24 13:45:00,21.3,5.5,30.67,ESE,113,3.5,5.3,50,0.00,,,0.00,WUHU216HW,2013-01-24 18:45:00,
2013-01-24 13:50:00,20.8,5.0,30.67,ESE,113,2.4,5.3,50,0.00,,,0.00,WUHU216HW,2013-01-24 18:50:00,
2013-01-24 13:55:00,20.8,5.0,30.67,SE,135,8.0,8.0,50,0.00,,,0.00,WUHU216HW,2013-01-24 18:55:00,
2013-01-24 14:00:00,20.8,5.0,30.67,SE,135,6.2,8.0,50,0.00,,,0.00,WUHU216HW,2013-01-24 19:00:00,
2013-01-24 14:05:00,20.4,4.2,30.67,ESE,113,2.9,6.7,49,0.00,,,0.00,WUHU216HW,2013-01-24 19:05:00,
2013-01-24 14:10:00,21.3,5.5,30.67,ESE,113,4.2,6.7,50,0.00,,,0.00,WUHU216HW,2013-01-24 19:10:00,
2013-01-24 14:15:00,21.0,3.7,30.66,ESE,113,3.3,5.3,47,0.00,,,0.00,WUHU216HW,2013-01-24 19:15:00,
2013-01-24 14:20:00,20.8,4.1,30.66,ESE,113,6.2,6.2,48,0.00,,,0.00,WUHU216HW,2013-01-24 19:20:00,
2013-01-24 14:25:00,21.0,3.7,30.66,SE,135,0.8,7.8,47,0.00,,,0.00,WUHU216HW,2013-01-24 19:25:00,
2013-01-24 14:30:00,20.8,3.6,30.66,ESE,113,1.5,7.8,47,0.00,,,0.00,WUHU216HW,2013-01-24 19:30:00,
2013-01-24 14:35:00,20.4,3.3,30.65,ESE,113,0.8,5.8,47,0.00,,,0.00,WUHU216HW,2013-01-24 19:35:00,
2013-01-24 14:40:00,20.8,4.1,30.66,SE,135,4.0,4.0,48,0.00,,,0.00,WUHU216HW,2013-01-24 19:40:00,
2013-01-24 14:45:00,21.2,4.4,30.66,SSE,158,0.8,4.0,48,0.00,,,0.00,WUHU216HW,2013-01-24 19:45:00,
2013-01-24 14:50:00,20.8,3.6,30.65,SE,135,1.1,2.4,47,0.00,,,0.00,WUHU216HW,2013-01-24 19:50:00,
2013-01-24 14:55:00,22.1,5.7,30.65,ESE,113,0.8,2.4,49,0.00,,,0.00,WUHU216HW,2013-01-24 19:55:00,
2013-01-24 15:00:00,23.0,6.6,30.65,ENE,68,1.3,2.4,49,0.00,,,0.00,WUHU216HW,2013-01-24 20:00:00,
2013-01-24 15:05:00,23.0,6.9,30.65,SE,135,2.2,2.2,48,0.00,,,0.00,WUHU216HW,2013-01-24 20:05:00,
2013-01-24 15:10:00,24.4,7.9,30.65,SE,135,1.3,2.2,49,0.00,,,0.00,WUHU216HW,2013-01-24 20:10:00,
2013-01-24 15:15:00,23.7,5.8,30.65,ENE,68,1.1,2.9,46,0.00,,,0.00,WUHU216HW,2013-01-24 20:15:00,
2013-01-24 15:20:00,23.7,6.8,30.65,NE,45,0.0,2.9,48,0.00,,,0.00,WUHU216HW,2013-01-24 20:20:00,
2013-01-24 15:25:00,24.6,7.1,30.64,ESE,113,0.8,2.6,47,0.00,,,0.00,WUHU216HW,2013-01-24 20:25:00,
2013-01-24 15:30:00,24.6,7.1,30.65,SE,135,0.0,2.6,47,0.00,,,0.00,WUHU216HW,2013-01-24 20:30:00,
2013-01-24 15:35:00,24.4,6.9,30.65,SE,135,3.1,3.1,47,0.00,,,0.00,WUHU216HW,2013-01-24 20:35:00,
2013-01-24 15:40:00,24.0,6.6,30.65,SE,135,0.0,3.1,47,0.00,,,0.00,WUHU216HW,2013-01-24 20:40:00,
2013-01-24 15:45:00,24.4,7.4,30.66,ESE,113,0.0,3.1,48,0.00,,,0.00,WUHU216HW,2013-01-24 20:45:00,
2013-01-24 15:50:00,24.6,7.1,30.65,SE,135,0.0,1.7,47,0.00,,,0.00,WUHU216HW,2013-01-24 20:50:00,
2013-01-24 15:55:00,24.6,7.9,30.66,East,90,0.0,0.0,48,0.00,,,0.00,WUHU216HW,2013-01-24 20:55:00,
2013-01-24 16:00:00,24.9,7.4,30.65,SE,135,0.0,0.8,47,0.00,,,0.00,WUHU216HW,2013-01-24 21:00:00,
2013-01-24 16:05:00,24.4,6.5,30.66,ESE,113,0.0,1.1,46,0.00,,,0.00,WUHU216HW,2013-01-24 21:05:00,
2013-01-24 16:10:00,24.0,6.1,30.65,SE,135,1.7,1.7,46,0.00,,,0.00,WUHU216HW,2013-01-24 21:10:00,
2013-01-24 16:15:00,23.3,5.5,30.65,ESE,113,1.3,2.0,46,0.00,,,0.00,WUHU216HW,2013-01-24 21:15:00,
2013-01-24 16:20:00,22.8,5.0,30.65,ESE,113,2.9,2.9,46,0.00,,,0.00,WUHU216HW,2013-01-24 21:20:00,
2013-01-24 19:22:00,15.8,2.7,30.62,ESE,113,0.0,0.0,56,0.00,,,0.00,WUHU216HW,2013-01-25 00:22:00,
2013-01-24 19:27:00,15.6,2.9,30.62,ESE,113,0.0,0.0,57,0.00,,,0.00,WUHU216HW,2013-01-25 00:27:00,
2013-01-24 19:32:00,15.6,2.9,30.62,ESE,113,0.6,0.6,57,0.00,,,0.00,WUHU216HW,2013-01-25 00:32:00,
2013-01-24 19:37:00,15.6,2.9,30.62,ESE,113,0.0,0.6,57,0.00,,,0.00,WUHU216HW,2013-01-25 00:37:00,
2013-01-24 19:42:00,15.6,2.9,30.61,ESE,113,0.0,0.6,57,0.00,,,0.00,WUHU216HW,2013-01-25 00:42:00,
2013-01-24 19:47:00,15.6,2.9,30.60,ESE,113,0.8,0.8,57,0.00,,,0.00,WUHU216HW,2013-01-25 00:47:00,
2013-01-24 19:52:00,15.6,2.9,30.61,ESE,113,0.0,0.8,57,0.00,,,0.00,WUHU216HW,2013-01-25 00:52:00,
2013-01-24 19:57:00,15.6,2.9,30.60,ESE,113,0.0,0.8,57,0.00,,,0.00,WUHU216HW,2013-01-25 00:57:00,
2013-01-24 20:02:00,15.6,3.3,30.60,ESE,113,0.0,0.6,58,0.00,,,0.00,WUHU216HW,2013-01-25 01:02:00,
2013-01-24 20:07:00,15.8,3.5,30.60,ESE,113,0.8,1.3,58,0.00,,,0.00,WUHU216HW,2013-01-25 01:07:00,
2013-01-24 20:12:00,15.6,3.3,30.59,ESE,113,0.0,1.3,58,0.00,,,0.00,WUHU216HW,2013-01-25 01:12:00,
2013-01-24 20:17:00,15.6,2.9,30.59,SE,135,1.1,1.1,57,0.00,,,0.00,WUHU216HW,2013-01-25 01:17:00,
2013-01-24 20:22:00,15.6,3.3,30.58,SE,135,0.0,1.1,58,0.00,,,0.00,WUHU216HW,2013-01-25 01:22:00,
2013-01-24 20:27:00,15.6,3.3,30.58,ESE,113,0.0,1.1,58,0.00,,,0.00,WUHU216HW,2013-01-25 01:27:00,
2013-01-24 20:32:00,15.6,3.3,30.58,SE,135,1.7,2.2,58,0.00,,,0.00,WUHU216HW,2013-01-25 01:32:00,
2013-01-24 20:37:00,15.4,3.1,30.57,SE,135,1.3,2.2,58,0.00,,,0.00,WUHU216HW,2013-01-25 01:37:00,
2013-01-24 20:42:00,15.4,3.1,30.57,ESE,113,2.0,2.2,58,0.00,,,0.00,WUHU216HW,2013-01-25 01:42:00,
2013-01-24 20:47:00,15.0,2.8,30.57,SE,135,0.8,3.5,58,0.00,,,0.00,WUHU216HW,2013-01-25 01:47:00,
2013-01-24 20:52:00,15.0,2.8,30.57,ESE,113,1.5,3.5,58,0.00,,,0.00,WUHU216HW,2013-01-25 01:52:00,
2013-01-24 20:57:00,15.0,2.8,30.57,ESE,113,0.0,1.5,58,0.00,,,0.00,WUHU216HW,2013-01-25 01:57:00,
2013-01-24 21:02:00,15.0,2.8,30.57,ESE,113,0.0,1.5,58,0.00,,,0.00,WUHU216HW,2013-01-25 02:02:00,
2013-01-24 21:07:00,15.0,2.8,30.57,ESE,113,0.0,1.1,58,0.00,,,0.00,WUHU216HW,2013-01-25 02:07:00,
2013-01-24 21:12:00,15.0,2.8,30.57,ESE,113,1.3,1.3,58,0.00,,,0.00,WUHU216HW,2013-01-25 02:12:00,
2013-01-24 21:17:00,15.2,3.3,30.56,ESE,113,0.0,1.5,59,0.00,,,0.00,WUHU216HW,2013-01-25 02:17:00,
2013-01-24 21:22:00,15.2,3.3,30.55,SE,135,2.0,2.0,59,0.00,,,0.00,WUHU216HW,2013-01-25 02:22:00,
2013-01-24 21:27:00,15.2,3.3,30.54,ESE,113,0.0,2.0,59,0.00,,,0.00,WUHU216HW,2013-01-25 02:27:00,
2013-01-24 21:32:00,15.4,3.5,30.54,ESE,113,0.8,0.8,59,0.00,,,0.00,WUHU216HW,2013-01-25 02:32:00,
2013-01-24 21:37:00,15.6,4.1,30.54,ESE,113,0.0,0.8,60,0.00,,,0.00,WUHU216HW,2013-01-25 02:37:00,
2013-01-24 21:42:00,15.6,4.1,30.54,ENE,68,0.0,1.5,60,0.00,,,0.00,WUHU216HW,2013-01-25 02:42:00,
2013-01-24 21:47:00,15.9,4.8,30.54,ENE,68,0.0,2.0,61,0.00,,,0.00,WUHU216HW,2013-01-25 02:47:00,
2013-01-24 21:52:00,16.3,5.1,30.53,ENE,68,1.1,2.0,61,0.00,,,0.00,WUHU216HW,2013-01-25 02:52:00,
2013-01-24 21:57:00,16.3,5.1,30.52,East,90,0.0,1.1,61,0.00,,,0.00,WUHU216HW,2013-01-25 02:57:00,
2013-01-24 22:02:00,16.1,4.9,30.52,East,90,2.0,2.0,61,0.00,,,0.00,WUHU216HW,2013-01-25 03:02:00,
2013-01-24 22:07:00,15.9,4.4,30.51,ESE,113,2.0,2.0,60,0.00,,,0.00,WUHU216HW,2013-01-25 03:07:00,
2013-01-24 22:12:00,15.8,4.2,30.51,ESE,113,1.1,2.0,60,0.00,,,0.00,WUHU216HW,2013-01-25 03:12:00,
2013-01-24 22:17:00,15.6,4.1,30.51,SE,135,3.8,3.8,60,0.00,,,0.00,WUHU216HW,2013-01-25 03:17:00,
2013-01-24 22:22:00,15.6,4.1,30.51,ESE,113,1.3,3.8,60,0.00,,,0.00,WUHU216HW,2013-01-25 03:22:00,
2013-01-24 22:27:00,15.6,4.1,30.51,SE,135,1.5,3.8,60,0.00,,,0.00,WUHU216HW,2013-01-25 03:27:00,
2013-01-24 22:32:00,15.4,3.9,30.52,SE,135,1.5,3.5,60,0.00,,,0.00,WUHU216HW,2013-01-25 03:32:00,
2013-01-24 22:37:00,15.4,3.9,30.52,SE,135,2.0,3.5,60,0.00,,,0.00,WUHU216HW,2013-01-25 03:37:00,
2013-01-24 22:42:00,15.4,3.9,30.52,ESE,113,0.0,2.0,60,0.00,,,0.00,WUHU216HW,2013-01-25 03:42:00,
2013-01-24 22:47:00,15.6,4.1,30.51,SE,135,1.5,2.0,60,0.00,,,0.00,WUHU216HW,2013-01-25 03:47:00,
2013-01-24 22:52:00,15.6,4.1,30.51,ESE,113,3.3,3.3,60,0.00,,,0.00,WUHU216HW,2013-01-25 03:52:00,
2013-01-24 22:57:00,15.4,3.9,30.51,ESE,113,3.1,3.3,60,0.00,,,0.00,WUHU216HW,2013-01-25 03:57:00,
2013-01-24 23:02:00,15.4,3.9,30.51,ESE,113,2.4,3.1,60,0.00,,,0.00,WUHU216HW,2013-01-25 04:02:00,
2013-01-24 23:07:00,15.4,3.9,30.51,SE,135,2.4,2.4,60,0.00,,,0.00,WUHU216HW,2013-01-25 04:07:00,
2013-01-24 23:12:00,15.6,4.1,30.51,SE,135,1.7,3.5,60,0.00,,,0.00,WUHU216HW,2013-01-25 04:12:00,
2013-01-24 23:17:00,15.6,4.1,30.51,ESE,113,1.7,3.5,60,0.00,,,0.00,WUHU216HW,2013-01-25 04:17:00,
2013-01-24 23:22:00,15.4,3.9,30.51,ESE,113,0.0,3.8,60,0.00,,,0.00,WUHU216HW,2013-01-25 04:22:00,
2013-01-24 23:27:00,15.6,4.1,30.50,ESE,113,0.0,3.8,60,0.00,,,0.00,WUHU216HW,2013-01-25 04:27:00,
2013-01-24 23:32:00,15.4,3.9,30.49,SE,135,1.7,3.1,60,0.00,,,0.00,WUHU216HW,2013-01-25 04:32:00,
2013-01-24 23:37:00,15.4,3.9,30.48,ESE,113,3.3,3.3,60,0.00,,,0.00,WUHU216HW,2013-01-25 04:37:00,
2013-01-24 23:42:00,15.4,3.9,30.47,ESE,113,6.2,6.2,60,0.00,,,0.00,WUHU216HW,2013-01-25 04:42:00,
2013-01-24 23:47:00,15.4,3.9,30.47,SE,135,0.0,6.2,60,0.00,,,0.00,WUHU216HW,2013-01-25 04:47:00,
2013-01-24 23:52:00,15.4,3.9,30.46,ESE,113,4.0,4.0,60,0.00,,,0.00,WUHU216HW,2013-01-25 04:52:00,
2013-01-24 23:57:00,15.4,3.9,30.46,ESE,113,2.0,4.0,60,0.00,,,0.00,WUHU216HW,2013-01-25 04:57:00,